{"data":{"norad_id":61010,"epoch":"2026-09-21T07:03:42.142464Z","epoch_age_seconds":123391,"freshness":"FRESH","line1":"1 61010U 24158W   26264.29423776  .00000236  00000+0  18115-4 0  9998","line2":"2 61010  53.1594 233.8159 0001382  82.3465 277.7694 15.34388288115571","mean_motion":15.34388288,"eccentricity":0.0001382,"inclination_deg":53.1594,"raan_deg":233.8159,"arg_perigee_deg":82.3465,"mean_anomaly_deg":277.7694,"bstar":1.8115e-5,"rev_number":11557,"period_min":93.848474422141,"perigee_km":461.79264202868,"apogee_km":463.68345989277,"semimajor_km":6840.8750509607,"source":"CELESTRAK","updated_at":"2026-09-22T09:00:49.329809Z"}}